[[{"header":{"parameterUnit":"m.s-1","parameterCategory":1,"la1":30.2991,"la2":30.254,"lo1":-89.0895,"lo2":-89.0444,"dy":0.0017,"dx":0.0017,"nx":28,"ny":28,"refTime":"2024-06-12T09:00:00:Z","depth":0,"parameterNumber":2,"parameterNumberName":"U-component_of_WINDS"},"data":[0,0,0,0,0,0,0,0,0,0,0,0,0,0,0,0,0,0,0,0,0,0,0,0,0,0,0,0,0,0,0,0,0,0,0,0,0,0,0,0,0,0,0,0,0,0,0,0,0,0,0,0,0,0,0,0,0,0,-1.8348,-1.8347,0,-1.8279,-1.8278,-1.8278,-1.8154,-1.8151,-1.8149,-1.8147,-1.8078,-1.8079,-1.8079,0,0,0,0,0,0,0,0,0,0,0,0,0,-1.8374,-1.8374,-1.8348,-1.8347,-1.8347,-1.8279,-1.8278,-1.8277,-1.8154,-1.8151,-1.8148,-1.8146,-1.8078,-1.8079,-1.8079,0,0,0,0,0,0,0,0,0,0,0,0,0,-1.834,-1.8374,-1.8348,-1.8277,-1.827,-1.828,-1.8278,-1.8277,-1.8155,-1.8151,-1.8148,-1.8144,-1.8078,-1.8079,-1.8079,-1.8154,0,0,-1.8081,-1.8081,0,0,0,0,0,0,0,0,-1.8342,-1.8339,-1.8288,-1.8282,-1.8274,-1.8221,-1.8262,-1.8236,-1.8156,-1.8199,-1.8147,-1.8143,-1.8129,-1.8125,-1.812,-1.8151,-1.8148,-1.8081,-1.8081,-1.8082,-1.8082,0,0,0,0,0,0,0,-1.8344,-1.8341,-1.8321,-1.8288,-1.8279,-1.8248,-1.824,-1.8257,-1.8185,-1.8195,-1.8185,-1.8179,-1.8124,-1.812,-1.8118,-1.8147,-1.8081,-1.8082,-1.8082,-1.8082,-1.8233,-1.8236,0,0,0,0,0,0,-1.8357,-1.8344,-1.8323,-1.8319,-1.83,-1.8251,-1.8241,-1.8242,-1.8184,-1.8172,-1.8182,-1.8173,-1.8121,-1.8117,-1.8115,-1.8196,-1.8082,-1.8082,-1.8083,-1.8229,-1.8233,-1.8237,0,0,0,0,0,0,-1.8358,-1.8356,-1.8326,-1.8329,-1.8323,-1.8254,-1.8256,-1.8242,-1.8238,-1.8174,-1.8161,-1.819,-1.8118,-1.8114,-1.8144,-1.8192,-1.8082,-1.8083,-1.8225,-1.823,-1.8235,-1.8362,0,0,0,0,0,0,-1.8359,-1.8358,-1.8385,-1.833,-1.8323,-1.8357,-1.8259,-1.8244,-1.8239,-1.8227,-1.8179,-1.8168,-1.8115,-1.8144,-1.8145,-1.8191,-1.8083,-1.822,-1.8227,-1.8234,-1.8353,-1.8371,-1.8386,0,0,0,0,0,-1.8361,-1.8425,-1.8387,-1.8385,-1.8356,-1.836,-1.8356,-1.8293,-1.8243,-1.827,-1.8229,-1.8169,-1.8187,-1.8148,-1.8148,-1.8195,-1.8217,-1.8225,-1.8233,-1.8346,-1.8368,-1.8386,0,0,0,0,0,0,-1.8488,-1.8416,-1.8374,-1.8422,-1.8398,-1.8339,-1.8371,-1.8318,-1.8309,-1.8298,-1.8221,-1.8211,-1.8251,-1.8226,-1.8184,-1.8263,-1.8192,-1.8201,-1.8278,-1.8298,-1.8315,-1.8319,-1.8084,0,0,0,0,0,-1.8521,-1.853,-1.8467,-1.8516,-1.8505,-1.8441,-1.844,-1.8394,-1.8366,-1.8355,-1.8317,-1.8293,-1.8292,-1.8294,-1.8291,-1.8349,-1.8336,-1.8381,-1.8398,-1.8412,-1.842,-1.8447,-1.8466,-1.8264,-1.8264,-1.8264,0,0,-1.8591,-1.8553,-1.8563,-1.854,-1.8516,-1.8526,-1.8433,-1.8449,-1.8456,-1.8358,-1.8383,-1.8355,-1.8322,-1.8367,-1.8384,-1.8347,-1.8473,-1.8422,-1.8434,-1.8434,-1.8457,-1.8477,-1.8494,-1.827,-1.8269,-1.8268,0,0,-1.8722,-1.8695,-1.8731,-1.8709,-1.8673,-1.8629,-1.8638,-1.8587,-1.8563,-1.8588,-1.8514,-1.8521,-1.8523,-1.8503,-1.8493,-1.8615,-1.8559,-1.8616,-1.8703,-1.873,-1.8746,-1.876,-1.8802,-1.8818,-1.8625,-1.8625,-1.8625,0,-1.8813,-1.8826,-1.8757,-1.8777,-1.8768,-1.8679,-1.8714,-1.8696,-1.8662,-1.8658,-1.8617,-1.8616,-1.8588,-1.8625,-1.8655,-1.865,-1.8657,-1.8621,-1.8749,-1.8762,-1.8774,-1.8813,-1.883,-1.8632,-1.8631,-1.8631,-1.863,0,-1.8939,-1.8949,-1.8983,-1.895,-1.8945,-1.8973,-1.8908,-1.8912,-1.8866,-1.8826,-1.8852,-1.8815,-1.8801,-1.8807,-1.8763,-1.8838,-1.8815,-1.8763,-1.869,-1.8802,-1.8837,-1.8852,-1.8642,-1.864,-1.8638,-1.8636,0,0,-1.9149,-1.9076,-1.909,-1.9073,-1.9027,-1.9033,-1.9057,-1.9042,-1.9046,-1.9026,-1.9043,-1.9046,-1.8996,-1.8985,-1.8937,-1.8961,-1.9058,-1.8905,-1.8903,-1.8934,-1.9137,-1.9175,-1.9194,-1.9021,-1.9024,-1.9026,-1.9139,0,-1.9269,-1.9305,-1.9243,-1.9292,-1.93,-1.9215,-1.9235,-1.9208,-1.9172,-1.9173,-1.9133,-1.9136,-1.9071,-1.9064,-1.9084,-1.9042,-1.9098,-1.9034,-1.9035,-1.9036,-1.9045,-1.9213,-1.9254,-1.9363,-1.9152,-1.9155,-1.9156,0,-1.9415,-1.94,-1.945,-1.9398,-1.9399,-1.9419,-1.94,-1.9402,-1.937,-1.9342,-1.9329,-1.9272,-1.9291,-1.9221,-1.9245,-1.9203,-1.92,-1.918,-1.9182,-1.9179,-1.9103,-1.9213,-1.9396,-1.9412,-1.9178,-1.9176,-1.9175,0,-1.9561,-1.9553,-1.9582,-1.957,-1.9512,-1.9527,-1.9503,-1.9467,-1.9462,-1.9446,-1.9442,-1.9429,-1.9421,-1.9412,-1.9353,-1.9308,-1.9384,-1.931,-1.9361,-1.9362,-1.938,-1.9379,-1.9564,-1.9381,-1.938,-1.938,-1.938,0,-1.9701,-1.9735,-1.9646,-1.9664,-1.9699,-1.9627,-1.9664,-1.9631,-1.96,-1.961,-1.9536,-1.9546,-1.9468,-1.947,-1.9424,-1.945,-1.9448,-1.9425,-1.9412,-1.9431,-1.9434,-1.9427,-1.9418,-1.9384,-1.9383,-1.9383,-1.9382,0,-1.987,-1.9812,-1.9837,-1.9779,-1.9765,-1.9793,-1.9743,-1.9757,-1.9716,-1.9728,-1.9727,-1.9663,-1.9661,-1.9601,-1.9587,-1.9556,-1.9601,-1.9575,-1.9612,-1.9603,-1.9656,-1.9651,-1.9842,-1.9862,-1.9668,-1.967,-1.9672,0,-1.9963,-1.9987,-1.9931,-1.9931,-1.9911,-1.9913,-1.9907,-1.9837,-1.9834,-1.9798,-1.9816,-1.9808,-1.9798,-1.9799,-1.975,-1.9739,-1.9711,-1.9779,-1.9709,-1.9726,-1.971,-1.9709,-1.971,-1.9793,-1.9796,-1.9798,-1.9799,0,-2.0133,-2.0103,-2.0097,-2.008,-2.0075,-2.0059,-2.0038,-2.0043,-1.9966,-1.9966,-1.9963,-1.9955,-1.994,-1.9932,-1.9912,-1.9887,-1.9831,-1.9822,-1.9832,-1.9851,-1.9871,-1.9859,-1.965,-1.9817,-1.9816,-1.9814,-1.9813,-1.9813,-2.0265,-2.0282,-2.0244,-2.0239,-2.0216,-2.0198,-2.0208,-2.0167,-2.0163,-2.0144,-2.0103,-2.0106,-2.0072,-2.0038,-2.0018,-2.0019,-1.9985,-2.0001,-2.0005,-2.001,-2.0019,-1.9872,-2.0016,-2.0015,-2.0014,-2.0014,-2.0014,0,-2.043,-2.0402,-2.0398,-2.037,-2.0367,-2.0313,-2.0287,-2.0287,-2.029,-2.0263,-2.0254,-2.025,-2.0242,-2.0192,-2.0179,-2.0189,-2.0162,-2.0187,-2.0185,-2.018,-2.0052,-2.0043,-2.0209,-2.0209,-2.0209,-2.0209,-2.0209,-2.0209,-2.0515,-2.054,-2.0505,-2.0517,-2.0487,-2.0489,-2.0479,-2.0461,-2.0439,-2.0437,-2.0429,-2.0397,-2.0361,-2.0343,-2.0333,-2.0319,-2.0317,-2.035,-2.0328,-2.0208,-2.0189,-2.0171,-2.0163,-2.0351,-2.0351,-2.0455,-2.0456,-2.0457]},{"header":{"parameterUnit":"m.s-1","parameterCategory":1,"la1":30.2991,"la2":30.254,"lo1":-89.0895,"lo2":-89.0444,"dy":0.0017,"dx":0.0017,"nx":28,"ny":28,"refTime":"2024-06-12T09:00:00:Z","depth":0,"parameterNumber":3,"parameterNumberName":"V-component_of_WINDS"},"data":[0,0,0,0,0,0,0,0,0,0,0,0,0,0,0,0,0,0,0,0,0,0,0,0,0,0,0,0,0,0,0,0,0,0,0,0,0,0,0,0,0,0,0,0,0,0,0,0,0,0,0,0,0,0,0,0,0,0,-2.3301,-2.3302,0,-2.3405,-2.3406,-2.3408,-2.3429,-2.3428,-2.3427,-2.3426,-2.3531,-2.3535,-2.3538,0,0,0,0,0,0,0,0,0,0,0,0,0,-2.3118,-2.3122,-2.3301,-2.3302,-2.3304,-2.3405,-2.3406,-2.3408,-2.3429,-2.3428,-2.3427,-2.3426,-2.353,-2.3534,-2.3538,0,0,0,0,0,0,0,0,0,0,0,0,0,-2.3208,-2.3123,-2.3301,-2.3326,-2.333,-2.3405,-2.3407,-2.3408,-2.3429,-2.3428,-2.3427,-2.3426,-2.3529,-2.3534,-2.3539,-2.3595,0,0,-2.3555,-2.3557,0,0,0,0,0,0,0,0,-2.3202,-2.3214,-2.3321,-2.3325,-2.3329,-2.3403,-2.338,-2.3471,-2.3429,-2.3391,-2.3426,-2.3425,-2.3489,-2.3498,-2.352,-2.36,-2.3605,-2.3555,-2.3559,-2.3561,-2.3562,0,0,0,0,0,0,0,-2.3196,-2.321,-2.3342,-2.3323,-2.3327,-2.3332,-2.3343,-2.3398,-2.3446,-2.3395,-2.3396,-2.3409,-2.3491,-2.3515,-2.3522,-2.3606,-2.3555,-2.356,-2.3563,-2.3565,-2.3737,-2.3738,0,0,0,0,0,0,-2.3186,-2.3205,-2.3339,-2.3345,-2.3261,-2.3336,-2.3349,-2.338,-2.3445,-2.3454,-2.3409,-2.3409,-2.3506,-2.3516,-2.3526,-2.3595,-2.3561,-2.3566,-2.3569,-2.3735,-2.3737,-2.3739,0,0,0,0,0,0,-2.3182,-2.3198,-2.3335,-2.3276,-2.3293,-2.3341,-2.3376,-2.3383,-2.3407,-2.3456,-2.3465,-2.3425,-2.3506,-2.3519,-2.3578,-2.3599,-2.3568,-2.3573,-2.3734,-2.3736,-2.3738,-2.3735,0,0,0,0,0,0,-2.3177,-2.3196,-2.3218,-2.3276,-2.3296,-2.3385,-2.3377,-2.3386,-2.3416,-2.3416,-2.3473,-2.3481,-2.3506,-2.357,-2.3583,-2.3606,-2.3577,-2.3732,-2.3735,-2.3737,-2.3733,-2.3736,-2.3739,0,0,0,0,0,-2.317,-2.3213,-2.3219,-2.3236,-2.3325,-2.3386,-2.3398,-2.3426,-2.3417,-2.344,-2.3472,-2.3479,-2.3595,-2.3576,-2.3591,-2.3616,-2.3731,-2.3734,-2.3737,-2.3732,-2.3736,-2.3739,0,0,0,0,0,0,-2.3156,-2.3221,-2.3229,-2.3292,-2.3334,-2.339,-2.3419,-2.3429,-2.3474,-2.3472,-2.3504,-2.3517,-2.3574,-2.3601,-2.3578,-2.3673,-2.3662,-2.3669,-2.3653,-2.3657,-2.3661,-2.3652,-2.3582,0,0,0,0,0,-2.3161,-2.3206,-2.326,-2.331,-2.3331,-2.3371,-2.3399,-2.3417,-2.3461,-2.3478,-2.3515,-2.3556,-2.3602,-2.3632,-2.3676,-2.3737,-2.3749,-2.3762,-2.3765,-2.3767,-2.3772,-2.3805,-2.3811,-2.3749,-2.3749,-2.3749,0,0,-2.317,-2.3211,-2.3237,-2.3308,-2.3343,-2.3387,-2.3386,-2.3433,-2.3467,-2.3485,-2.3543,-2.3571,-2.362,-2.368,-2.3708,-2.3704,-2.3792,-2.3771,-2.3773,-2.3776,-2.3809,-2.3815,-2.382,-2.3751,-2.375,-2.375,0,0,-2.321,-2.3246,-2.3292,-2.3326,-2.3378,-2.3405,-2.3416,-2.3471,-2.349,-2.3549,-2.3564,-2.3604,-2.3682,-2.3716,-2.3743,-2.3796,-2.3804,-2.381,-2.3826,-2.3858,-2.3863,-2.3867,-2.3885,-2.3891,-2.3815,-2.3815,-2.3815,0,-2.3215,-2.3284,-2.3314,-2.3361,-2.3391,-2.3411,-2.3457,-2.3489,-2.3552,-2.3572,-2.3567,-2.3666,-2.37,-2.3768,-2.3781,-2.3803,-2.3815,-2.3803,-2.386,-2.3864,-2.3869,-2.3886,-2.3893,-2.3815,-2.3815,-2.3815,-2.3815,0,-2.3287,-2.3334,-2.3364,-2.3426,-2.346,-2.3506,-2.3542,-2.3573,-2.3588,-2.3615,-2.3674,-2.3716,-2.377,-2.3787,-2.3802,-2.3857,-2.3853,-2.3853,-2.3843,-2.3875,-2.3891,-2.3898,-2.3815,-2.3815,-2.3815,-2.3815,0,0,-2.332,-2.3398,-2.3408,-2.3436,-2.3495,-2.3532,-2.3579,-2.3632,-2.3657,-2.37,-2.3739,-2.3805,-2.3806,-2.3837,-2.3856,-2.3885,-2.3923,-2.3882,-2.3884,-2.3887,-2.3984,-2.3982,-2.399,-2.3929,-2.393,-2.3931,-2.398,0,-2.3366,-2.3451,-2.3479,-2.3549,-2.3592,-2.3612,-2.3652,-2.3692,-2.3719,-2.3759,-2.3788,-2.3834,-2.3832,-2.3851,-2.388,-2.3912,-2.3942,-2.3909,-2.3965,-2.3966,-2.395,-2.3999,-2.3997,-2.4041,-2.3986,-2.3988,-2.3989,0,-2.3431,-2.3475,-2.355,-2.3603,-2.3622,-2.3658,-2.3708,-2.3747,-2.3793,-2.381,-2.3845,-2.3862,-2.3911,-2.3898,-2.3965,-2.3942,-2.3967,-2.3986,-2.3988,-2.3993,-2.3978,-2.4004,-2.4055,-2.4061,-2.3999,-2.3998,-2.3998,0,-2.3446,-2.3525,-2.3579,-2.3603,-2.3666,-2.3691,-2.3719,-2.3763,-2.3793,-2.3837,-2.3856,-2.3905,-2.3932,-2.3969,-2.3998,-2.3987,-2.4062,-2.4053,-2.4077,-2.4076,-2.4091,-2.4089,-2.4146,-2.4109,-2.4109,-2.4109,-2.4109,0,-2.3494,-2.3538,-2.3587,-2.362,-2.367,-2.3702,-2.3751,-2.3779,-2.3819,-2.3857,-2.3878,-2.3913,-2.3951,-2.3991,-2.4014,-2.4066,-2.4078,-2.4092,-2.4098,-2.409,-2.4088,-2.4105,-2.4103,-2.411,-2.411,-2.411,-2.4109,0,-2.3519,-2.3554,-2.3614,-2.3669,-2.3684,-2.3718,-2.3766,-2.3798,-2.3826,-2.3874,-2.3888,-2.3931,-2.3979,-2.4013,-2.4075,-2.4091,-2.4146,-2.4151,-2.413,-2.4133,-2.4155,-2.4152,-2.4223,-2.4234,-2.4191,-2.4191,-2.4192,0,-2.3546,-2.3581,-2.364,-2.3667,-2.3695,-2.3739,-2.377,-2.3803,-2.3834,-2.3888,-2.3914,-2.3964,-2.4006,-2.4082,-2.4119,-2.4166,-2.4172,-2.4194,-2.4179,-2.417,-2.4171,-2.4168,-2.4171,-2.4196,-2.4196,-2.4196,-2.4197,0,-2.3591,-2.3606,-2.365,-2.3699,-2.3735,-2.3776,-2.3816,-2.3838,-2.3877,-2.3911,-2.3961,-2.3993,-2.4057,-2.4106,-2.4157,-2.4185,-2.4197,-2.4201,-2.4209,-2.4201,-2.4187,-2.4193,-2.4135,-2.4199,-2.4199,-2.4199,-2.4198,-2.4198,-2.3617,-2.3648,-2.3695,-2.3742,-2.3777,-2.3814,-2.3847,-2.3879,-2.3922,-2.3976,-2.3993,-2.4045,-2.4089,-2.4159,-2.4188,-2.4228,-2.4226,-2.4238,-2.4241,-2.4243,-2.4242,-2.4181,-2.4238,-2.4238,-2.4238,-2.4238,-2.4238,0,-2.3662,-2.3692,-2.3736,-2.3792,-2.383,-2.3839,-2.3884,-2.3914,-2.396,-2.4001,-2.4041,-2.4099,-2.4146,-2.4187,-2.4236,-2.426,-2.4267,-2.4272,-2.427,-2.4276,-2.4242,-2.4229,-2.4266,-2.4266,-2.4266,-2.4266,-2.4266,-2.4266,-2.3689,-2.3742,-2.3763,-2.3833,-2.3864,-2.3915,-2.394,-2.3974,-2.4007,-2.407,-2.411,-2.4136,-2.4177,-2.4229,-2.4273,-2.4283,-2.43,-2.4303,-2.4315,-2.4282,-2.4278,-2.4275,-2.4264,-2.4307,-2.4307,-2.4346,-2.4346,-2.4346]}]]